Terminal Aerodrome Forecast
Issued by NWS Miami, FL

Home | Current Version | Previous Version | Text Only | Print | Product List | Glossary On
Versions: 1 2 3 4 5 6 7 8 9 10 11 12 13 14 15 16 17 18 19 20 21 22 23 24 25
000
FTUS42 KMFL 201120
TAFAPF
TAF
KAPF 201120Z 2012/2112 06005KT P6SM FEW040 SCT250
     FM201500 07008KT P6SM FEW030 SCT250
     FM201900 24008KT P6SM SCT025 SCT050
     FM210100 VRB03KT P6SM FEW040=

USA.gov is the U.S. government's official web portal to all federal, state and local government web resources and services.